This is the latest recevied weather packets stored in our database for station/object IR9AK-10. If no packets are shown the sender has not sent any weather packets the latest 1 day(s).
| Time | Temp. | Humidity | Pressure | Rain* | Wind** | Luminosity | Snow |
|---|---|---|---|---|---|---|---|
| 1778100151 | 21.67° C | 51% | 1055.9 hPa | - | - | - | - |
| 1778098354 | 22.22° C | 48% | 1056.8 hPa | - | - | - | - |
| 1778097754 | 22.22° C | 48% | 1056.7 hPa | - | - | - | - |
| 1778097156 | 22.22° C | 47% | 1057 hPa | - | - | - | - |
| 1778095958 | 22.22° C | 47% | 1057.2 hPa | - | - | - | - |
| 1778094759 | 22.22° C | 48% | 1057.1 hPa | - | - | - | - |
| 1778092960 | 22.78° C | 43% | 1057.5 hPa | - | - | - | - |
| 1778091163 | 22.78° C | 45% | 1057.4 hPa | - | - | - | - |
| 1778090569 | 22.78° C | 44% | 1057.4 hPa | - | - | - | - |
| 1778089371 | 22.78° C | 43% | 1057.3 hPa | - | - | - | - |
| 1778087890 | 23.33° C | 44% | 1057.2 hPa | - | - | - | - |
| 1778087291 | 23.89° C | 45% | 1057.1 hPa | - | - | - | - |
| 1778086691 | 23.89° C | 46% | 1057.2 hPa | - | - | - | - |
| 1778085493 | 23.89° C | 49% | 1057.4 hPa | - | - | - | - |
| 1778084296 | 24.44° C | 48% | 1057.6 hPa | - | - | - | - |
| 1778083698 | 24.44° C | 45% | 1057.5 hPa | - | - | - | - |
| 1778083099 | 23.89° C | 46% | 1057.7 hPa | - | - | - | - |
| 1778081301 | 24.44° C | 45% | 1057.7 hPa | - | - | - | - |
| 1778079640 | 23.89° C | 41% | 1057.7 hPa | - | - | - | - |
| 1778077243 | 25° C | 43% | 1057.4 hPa | - | - | - | - |
| 1778073647 | 25.56° C | 38% | 1057.2 hPa | - | - | - | - |
| 1778072072 | 25.56° C | 38% | 1057.6 hPa | - | - | - | - |
| 1778070874 | 25° C | 37% | 1057.6 hPa | - | - | - | - |
| 1778066080 | 25° C | 40% | 1058.2 hPa | - | - | - | - |
| 1778065482 | 25.56° C | 38% | 1058.2 hPa | - | - | - | - |
* Rain since midnight (hover to see other rain measurements)
** Current wind speed in m/s (hover to see current wind gust speed)